2022-056B (52717 NORAD) Tracking and Keplerian Element Data

This shows tracking and keplerian element data for the satellite.

Feedback or suggestion? Click here.




ElementValue
Catalog52717
Name2022-056B
Epoch Orbit364
Epoch Day166.46284223
Epoch Year2022
RAAN308.8157
Inclination86.0002
Eccentricity0.003198
Argument of Perigee266.9866
Mean Anonmoly153.7888
Mean Motion13.88228409
Decay Rate9.08E-05
L11 52717U 22056B 22166.46284223 .00009080 00000+0 75488-2 0 9995
L22 52717 86.0002 308.8157 0031980 266.9866 153.7888 13.88228409 3644

Live tracking and technical data element details for 2022-056B (NORAD 52717). 2022-056B can be tracked NOW for your location showing map with azimuth and elevation plus other details from your city location.

Track the satellite on the map from your city or location and see movement details for azimuth, elevation, latitude, longitude, range, height, and movement on the map or in text.







IsCatalogInMostPopularTable: catalog: 52717, numindb: 3
Update: records affected: 1



GetName: 52717 2022-056B

Hit Count: updated at: Sat, 25 Jun 2022 04:21:01 GMT